N247FP KSBY-KFFA

Flight info

Callsign N247FP
Flight time N/A
Altitude 6000
Route MAGGO T303 ORF/N0111F050 CANOB WAPLS 7NC2
Aircraft RV12/L-SFG/C

Departure

Time N/A
Airport Salisbury Ocean City Wicomico Regional Airport (KSBY)

Arrival

Time 2026-05-07 22:44
Airport First Flight Airport (KFFA)
Time Latitude Longitude Altitude Speed Heading
2026-05-07 21:38 37.87308 -75.80083 4586 ft 108 kts 213°
2026-05-07 21:38 37.86630 -75.80497 4703 ft 108 kts 214°
2026-05-07 21:38 37.85958 -75.80907 4821 ft 107 kts 213°
2026-05-07 21:38 37.85286 -75.81316 4934 ft 106 kts 215°
2026-05-07 21:39 37.84623 -75.81722 5044 ft 105 kts 214°
2026-05-07 21:39 37.83963 -75.82125 5146 ft 105 kts 214°
2026-05-07 21:39 37.83322 -75.82547 5243 ft 100 kts 228°
2026-05-07 21:39 37.82857 -75.83174 5340 ft 96 kts 238°
2026-05-07 21:40 37.82218 -75.83559 5427 ft 111 kts 194°
2026-05-07 21:40 37.81423 -75.83467 5516 ft 115 kts 181°
2026-05-07 21:40 37.80629 -75.83332 5612 ft 114 kts 181°
2026-05-07 21:40 37.79837 -75.83192 5703 ft 115 kts 181°
2026-05-07 21:41 37.79045 -75.83050 5792 ft 115 kts 180°
2026-05-07 21:41 37.78255 -75.82902 5885 ft 114 kts 180°
2026-05-07 21:41 37.77471 -75.82751 5984 ft 113 kts 180°
2026-05-07 21:41 37.76686 -75.82589 6064 ft 114 kts 180°
2026-05-07 21:42 37.75899 -75.82428 6151 ft 115 kts 181°
2026-05-07 21:42 37.75133 -75.82394 6240 ft 104 kts 204°
2026-05-07 21:42 37.74425 -75.82599 6333 ft 103 kts 206°
2026-05-07 21:42 37.73719 -75.82800 6413 ft 103 kts 206°
2026-05-07 21:43 37.73024 -75.82989 6468 ft 101 kts 205°
2026-05-07 21:43 37.72326 -75.83186 6486 ft 103 kts 206°
2026-05-07 21:43 37.71626 -75.83382 6504 ft 103 kts 206°
2026-05-07 21:43 37.70925 -75.83586 6525 ft 103 kts 206°
2026-05-07 21:44 37.70219 -75.83780 6531 ft 104 kts 206°
2026-05-07 21:44 37.69507 -75.83976 6530 ft 105 kts 206°
2026-05-07 21:44 37.68792 -75.84169 6530 ft 105 kts 205°
2026-05-07 21:44 37.68076 -75.84368 6530 ft 105 kts 206°
2026-05-07 21:45 37.67363 -75.84570 6531 ft 105 kts 206°
2026-05-07 21:45 37.66649 -75.84771 6530 ft 104 kts 206°
2026-05-07 21:45 37.65936 -75.84973 6529 ft 105 kts 206°
2026-05-07 21:45 37.65221 -75.85170 6531 ft 104 kts 206°
2026-05-07 21:46 37.64523 -75.85356 6528 ft 101 kts 206°
2026-05-07 21:46 37.63838 -75.85535 6530 ft 99 kts 206°
2026-05-07 21:46 37.63159 -75.85707 6530 ft 99 kts 206°
2026-05-07 21:46 37.62486 -75.85886 6528 ft 98 kts 206°
2026-05-07 21:47 37.61814 -75.86061 6531 ft 98 kts 206°
2026-05-07 21:47 37.61143 -75.86239 6529 ft 98 kts 206°
2026-05-07 21:47 37.60471 -75.86422 6530 ft 98 kts 206°
2026-05-07 21:47 37.59799 -75.86604 6530 ft 98 kts 206°
2026-05-07 21:48 37.59130 -75.86785 6531 ft 98 kts 206°
2026-05-07 21:48 37.58457 -75.86963 6530 ft 98 kts 206°
2026-05-07 21:48 37.57785 -75.87141 6530 ft 98 kts 206°
2026-05-07 21:48 37.57115 -75.87324 6529 ft 98 kts 206°
2026-05-07 21:49 37.56427 -75.87517 6417 ft 105 kts 206°
2026-05-07 21:49 37.55701 -75.87730 6245 ft 109 kts 206°
2026-05-07 21:49 37.54952 -75.87956 6072 ft 112 kts 205°
2026-05-07 21:49 37.54194 -75.88205 5897 ft 113 kts 206°
2026-05-07 21:50 37.53432 -75.88472 5720 ft 114 kts 206°
2026-05-07 21:50 37.52656 -75.88743 5546 ft 116 kts 206°
2026-05-07 21:50 37.51879 -75.89027 5369 ft 116 kts 206°
2026-05-07 21:50 37.51103 -75.89324 5193 ft 116 kts 206°
2026-05-07 21:51 37.50329 -75.89632 5017 ft 117 kts 206°
2026-05-07 21:51 37.49553 -75.89950 4842 ft 117 kts 206°
2026-05-07 21:51 37.48773 -75.90276 4666 ft 118 kts 206°
2026-05-07 21:51 37.47987 -75.90613 4540 ft 118 kts 206°
2026-05-07 21:52 37.47228 -75.90942 4530 ft 113 kts 206°
2026-05-07 21:52 37.46483 -75.91265 4529 ft 113 kts 206°
2026-05-07 21:52 37.45743 -75.91588 4531 ft 113 kts 206°
2026-05-07 21:52 37.44996 -75.91907 4532 ft 113 kts 206°
2026-05-07 21:53 37.44249 -75.92224 4529 ft 113 kts 206°
2026-05-07 21:53 37.43510 -75.92545 4529 ft 112 kts 206°
2026-05-07 21:53 37.42767 -75.92864 4530 ft 112 kts 206°
2026-05-07 21:53 37.42026 -75.93187 4531 ft 112 kts 206°
2026-05-07 21:54 37.41282 -75.93502 4531 ft 112 kts 205°
2026-05-07 21:54 37.40537 -75.93826 4530 ft 113 kts 206°
2026-05-07 21:54 37.39793 -75.94144 4530 ft 112 kts 206°
2026-05-07 21:54 37.39052 -75.94469 4531 ft 112 kts 206°
2026-05-07 21:55 37.38313 -75.94790 4530 ft 112 kts 206°
2026-05-07 21:55 37.37570 -75.95113 4530 ft 112 kts 206°
2026-05-07 21:55 37.36828 -75.95437 4530 ft 112 kts 206°
2026-05-07 21:55 37.36090 -75.95766 4528 ft 110 kts 214°
2026-05-07 21:56 37.35435 -75.96253 4531 ft 109 kts 219°
2026-05-07 21:56 37.34784 -75.96744 4531 ft 109 kts 219°
2026-05-07 21:56 37.34133 -75.97235 4531 ft 109 kts 219°
2026-05-07 21:56 37.33479 -75.97725 4530 ft 109 kts 219°
2026-05-07 21:57 37.32830 -75.98219 4530 ft 109 kts 219°
2026-05-07 21:57 37.32174 -75.98710 4531 ft 109 kts 219°
2026-05-07 21:57 37.31523 -75.99203 4530 ft 109 kts 219°
2026-05-07 21:57 37.30866 -75.99695 4531 ft 109 kts 219°
2026-05-07 21:58 37.30216 -76.00191 4531 ft 109 kts 219°
2026-05-07 21:58 37.29559 -76.00676 4531 ft 109 kts 219°
2026-05-07 21:58 37.28909 -76.01169 4530 ft 109 kts 219°
2026-05-07 21:58 37.28254 -76.01661 4531 ft 109 kts 219°
2026-05-07 21:59 37.27601 -76.02154 4530 ft 109 kts 219°
2026-05-07 21:59 37.26947 -76.02645 4531 ft 109 kts 219°
2026-05-07 21:59 37.26291 -76.03135 4531 ft 109 kts 219°
2026-05-07 21:59 37.25634 -76.03622 4531 ft 109 kts 219°
2026-05-07 22:00 37.24985 -76.04119 4530 ft 109 kts 219°
2026-05-07 22:00 37.24330 -76.04605 4530 ft 109 kts 219°
2026-05-07 22:00 37.23675 -76.05101 4531 ft 109 kts 219°
2026-05-07 22:00 37.23022 -76.05593 4531 ft 109 kts 218°
2026-05-07 22:01 37.22377 -76.06071 4620 ft 102 kts 219°
2026-05-07 22:01 37.21811 -76.06475 4839 ft 88 kts 218°
2026-05-07 22:01 37.21278 -76.06847 5080 ft 86 kts 219°
2026-05-07 22:01 37.20763 -76.07185 5337 ft 82 kts 219°
2026-05-07 22:02 37.20261 -76.07493 5596 ft 79 kts 219°
2026-05-07 22:02 37.19769 -76.07786 5845 ft 78 kts 218°
2026-05-07 22:02 37.19283 -76.08067 6091 ft 76 kts 219°
2026-05-07 22:02 37.18799 -76.08336 6334 ft 75 kts 219°
2026-05-07 22:03 37.18307 -76.08598 6506 ft 82 kts 219°
2026-05-07 22:03 37.17738 -76.08928 6523 ft 96 kts 219°
2026-05-07 22:03 37.17126 -76.09299 6515 ft 98 kts 219°
2026-05-07 22:03 37.16511 -76.09666 6511 ft 97 kts 219°
2026-05-07 22:04 37.15881 -76.10003 6512 ft 103 kts 204°
2026-05-07 22:04 37.15122 -76.09873 6515 ft 115 kts 173°
2026-05-07 22:04 37.14354 -76.09580 6512 ft 115 kts 174°
2026-05-07 22:04 37.13611 -76.09555 6508 ft 101 kts 207°
2026-05-07 22:05 37.12929 -76.09786 6513 ft 101 kts 209°
2026-05-07 22:05 37.12253 -76.10029 6512 ft 101 kts 210°
2026-05-07 22:05 37.11577 -76.10284 6513 ft 100 kts 210°
2026-05-07 22:05 37.10907 -76.10546 6511 ft 101 kts 211°
2026-05-07 22:06 37.10239 -76.10814 6512 ft 100 kts 211°
2026-05-07 22:06 37.09572 -76.11088 6512 ft 100 kts 211°
2026-05-07 22:06 37.08908 -76.11364 6513 ft 100 kts 211°
2026-05-07 22:06 37.08241 -76.11645 6513 ft 100 kts 212°
2026-05-07 22:07 37.07576 -76.11929 6513 ft 100 kts 212°
2026-05-07 22:07 37.06915 -76.12212 6514 ft 100 kts 213°
2026-05-07 22:07 37.06258 -76.12497 6512 ft 100 kts 212°
2026-05-07 22:07 37.05595 -76.12785 6512 ft 100 kts 212°
2026-05-07 22:08 37.04938 -76.13072 6512 ft 99 kts 212°
2026-05-07 22:08 37.04280 -76.13360 6511 ft 100 kts 213°
2026-05-07 22:08 37.03619 -76.13650 6513 ft 100 kts 212°
2026-05-07 22:08 37.02959 -76.13940 6512 ft 100 kts 213°
2026-05-07 22:09 37.02303 -76.14229 6513 ft 99 kts 212°
2026-05-07 22:09 37.01647 -76.14518 6512 ft 100 kts 213°
2026-05-07 22:09 37.00990 -76.14809 6512 ft 100 kts 212°
2026-05-07 22:09 37.00328 -76.15102 6511 ft 100 kts 213°
2026-05-07 22:10 36.99668 -76.15393 6511 ft 100 kts 213°
2026-05-07 22:10 36.99010 -76.15684 6512 ft 100 kts 213°
2026-05-07 22:10 36.98346 -76.15962 6514 ft 103 kts 203°
2026-05-07 22:10 36.97589 -76.15792 6515 ft 117 kts 167°
2026-05-07 22:11 36.96837 -76.15366 6512 ft 119 kts 164°
2026-05-07 22:11 36.96085 -76.14921 6513 ft 119 kts 163°
2026-05-07 22:11 36.95335 -76.14461 6511 ft 120 kts 163°
2026-05-07 22:11 36.94588 -76.13992 6511 ft 120 kts 163°
2026-05-07 22:12 36.93842 -76.13518 6512 ft 120 kts 162°
2026-05-07 22:12 36.93097 -76.13035 6514 ft 120 kts 162°
2026-05-07 22:12 36.92352 -76.12550 6513 ft 120 kts 162°
2026-05-07 22:12 36.91609 -76.12060 6513 ft 120 kts 161°
2026-05-07 22:13 36.90862 -76.11567 6454 ft 122 kts 161°
2026-05-07 22:13 36.90101 -76.11062 6356 ft 124 kts 160°
2026-05-07 22:13 36.89341 -76.10556 6254 ft 124 kts 160°
2026-05-07 22:13 36.88571 -76.10041 6153 ft 125 kts 160°
2026-05-07 22:14 36.87806 -76.09529 6052 ft 125 kts 159°
2026-05-07 22:14 36.87038 -76.09014 5950 ft 125 kts 159°
2026-05-07 22:14 36.86267 -76.08497 5844 ft 125 kts 158°
2026-05-07 22:14 36.85497 -76.07979 5744 ft 125 kts 158°
2026-05-07 22:15 36.84728 -76.07462 5641 ft 125 kts 157°
2026-05-07 22:15 36.83960 -76.06945 5540 ft 125 kts 157°
2026-05-07 22:15 36.83209 -76.06439 5508 ft 120 kts 156°
2026-05-07 22:15 36.82483 -76.05949 5509 ft 118 kts 156°
2026-05-07 22:16 36.81764 -76.05464 5512 ft 117 kts 156°
2026-05-07 22:16 36.81046 -76.04980 5511 ft 117 kts 156°
2026-05-07 22:16 36.80330 -76.04497 5509 ft 117 kts 157°
2026-05-07 22:16 36.79610 -76.04012 5509 ft 117 kts 156°
2026-05-07 22:17 36.78889 -76.03526 5510 ft 118 kts 157°
2026-05-07 22:17 36.78157 -76.03034 5513 ft 120 kts 156°
2026-05-07 22:17 36.77416 -76.02536 5513 ft 120 kts 156°
2026-05-07 22:17 36.76674 -76.02036 5511 ft 121 kts 157°
2026-05-07 22:18 36.75922 -76.01575 5508 ft 118 kts 170°
2026-05-07 22:18 36.74331 -76.01030 5511 ft 118 kts 172°
2026-05-07 22:18 36.73535 -76.00762 5511 ft 118 kts 172°
2026-05-07 22:19 36.72740 -76.00496 5511 ft 118 kts 171°
2026-05-07 22:19 36.71946 -76.00229 5511 ft 118 kts 172°
2026-05-07 22:19 36.71151 -75.99964 5511 ft 117 kts 172°
2026-05-07 22:19 36.70359 -75.99699 5510 ft 118 kts 172°
2026-05-07 22:20 36.69565 -75.99435 5511 ft 117 kts 172°
2026-05-07 22:20 36.68770 -75.99170 5510 ft 118 kts 172°
2026-05-07 22:20 36.67976 -75.98906 5511 ft 118 kts 172°
2026-05-07 22:20 36.67181 -75.98641 5511 ft 118 kts 172°
2026-05-07 22:21 36.66384 -75.98378 5511 ft 118 kts 172°
2026-05-07 22:21 36.65589 -75.98114 5512 ft 118 kts 172°
2026-05-07 22:21 36.64794 -75.97849 5511 ft 118 kts 172°
2026-05-07 22:21 36.63997 -75.97585 5511 ft 118 kts 172°
2026-05-07 22:22 36.63202 -75.97320 5511 ft 118 kts 172°
2026-05-07 22:22 36.62408 -75.97058 5511 ft 118 kts 172°
2026-05-07 22:22 36.61615 -75.96795 5511 ft 118 kts 172°
2026-05-07 22:22 36.60818 -75.96530 5511 ft 118 kts 172°
2026-05-07 22:23 36.60019 -75.96266 5511 ft 118 kts 172°
2026-05-07 22:23 36.59224 -75.96002 5511 ft 118 kts 172°
2026-05-07 22:23 36.58425 -75.95737 5512 ft 118 kts 169°
2026-05-07 22:23 36.57654 -75.95352 5511 ft 120 kts 163°
2026-05-07 22:24 36.56883 -75.94955 5512 ft 120 kts 163°
2026-05-07 22:24 36.56109 -75.94553 5512 ft 120 kts 163°
2026-05-07 22:24 36.55337 -75.94153 5512 ft 120 kts 163°
2026-05-07 22:24 36.54564 -75.93751 5511 ft 120 kts 163°
2026-05-07 22:25 36.53783 -75.93345 5440 ft 125 kts 163°
2026-05-07 22:25 36.53010 -75.92801 5243 ft 132 kts 137°
2026-05-07 22:25 36.52459 -75.91871 4893 ft 137 kts 120°
2026-05-07 22:25 36.51963 -75.90853 4407 ft 140 kts 115°
2026-05-07 22:26 36.51578 -75.89775 3938 ft 132 kts 100°
2026-05-07 22:26 36.51291 -75.88737 3619 ft 125 kts 112°
2026-05-07 22:26 36.50740 -75.87932 3539 ft 121 kts 138°
2026-05-07 22:26 36.50028 -75.87392 3507 ft 121 kts 148°
2026-05-07 22:27 36.49244 -75.86985 3444 ft 121 kts 158°
2026-05-07 22:27 36.48425 -75.86718 3379 ft 122 kts 166°
2026-05-07 22:27 36.47609 -75.86490 3414 ft 119 kts 163°
2026-05-07 22:27 36.46813 -75.86219 3443 ft 118 kts 159°
2026-05-07 22:28 36.46004 -75.86013 3444 ft 119 kts 179°
2026-05-07 22:28 36.45179 -75.85896 3461 ft 119 kts 162°
2026-05-07 22:28 36.44379 -75.85598 3448 ft 121 kts 160°
2026-05-07 22:28 36.43627 -75.85136 3414 ft 121 kts 146°
2026-05-07 22:29 36.42860 -75.84661 3346 ft 124 kts 153°
2026-05-07 22:29 36.42056 -75.84260 3311 ft 124 kts 149°
2026-05-07 22:29 36.41277 -75.83798 3263 ft 125 kts 154°
2026-05-07 22:29 36.40907 -75.83658 3243 ft 126 kts 166°
2026-05-07 22:30 36.38547 -75.83157 3065 ft 120 kts 163°
2026-05-07 22:31 36.37812 -75.82681 2957 ft 120 kts 154°
2026-05-07 22:31 36.37015 -75.82387 2906 ft 120 kts 169°
2026-05-07 22:31 36.36211 -75.82169 2964 ft 118 kts 163°
2026-05-07 22:31 36.35473 -75.81872 2945 ft 119 kts 153°
2026-05-07 22:32 36.34146 -75.81652 2879 ft 121 kts 155°
2026-05-07 22:33 36.33450 -75.81107 2925 ft 116 kts 158°
2026-05-07 22:33 36.32707 -75.80853 3134 ft 107 kts 167°
2026-05-07 22:33 36.31979 -75.80659 3273 ft 107 kts 166°
2026-05-07 22:33 36.31239 -75.80445 3353 ft 110 kts 172°
2026-05-07 22:34 36.30469 -75.80242 3348 ft 116 kts 165°
2026-05-07 22:34 36.29683 -75.79950 3312 ft 118 kts 164°
2026-05-07 22:34 36.28901 -75.79624 3284 ft 119 kts 166°
2026-05-07 22:34 36.28091 -75.79354 3282 ft 121 kts 164°
2026-05-07 22:35 36.27275 -75.79116 3293 ft 119 kts 167°
2026-05-07 22:35 36.26498 -75.78743 3270 ft 122 kts 152°
2026-05-07 22:35 36.25733 -75.78274 3201 ft 123 kts 156°
2026-05-07 22:35 36.24964 -75.77823 3111 ft 122 kts 152°
2026-05-07 22:36 36.24202 -75.77382 2989 ft 120 kts 152°
2026-05-07 22:36 36.23436 -75.76981 2905 ft 119 kts 160°
2026-05-07 22:36 36.22669 -75.76597 2812 ft 117 kts 154°
2026-05-07 22:36 36.21910 -75.76237 2729 ft 117 kts 157°
2026-05-07 22:37 36.21133 -75.75899 2583 ft 120 kts 160°
2026-05-07 22:37 36.20336 -75.75591 2414 ft 120 kts 159°
2026-05-07 22:37 36.19548 -75.75267 2258 ft 119 kts 157°
2026-05-07 22:37 36.18779 -75.74935 2147 ft 117 kts 159°
2026-05-07 22:38 36.18010 -75.74627 2039 ft 116 kts 155°
2026-05-07 22:38 36.17239 -75.74349 1977 ft 115 kts 159°
2026-05-07 22:38 36.16463 -75.74126 1977 ft 115 kts 160°
2026-05-07 22:38 36.15669 -75.73911 1943 ft 118 kts 161°
2026-05-07 22:39 36.14897 -75.73598 1910 ft 116 kts 151°
2026-05-07 22:39 36.14136 -75.73301 1946 ft 112 kts 152°
2026-05-07 22:39 36.13418 -75.72933 1945 ft 111 kts 147°
2026-05-07 22:39 36.12690 -75.72548 1868 ft 115 kts 150°
2026-05-07 22:40 36.11934 -75.72187 1805 ft 116 kts 152°
2026-05-07 22:40 36.11194 -75.71789 1687 ft 115 kts 136°
2026-05-07 22:40 36.10528 -75.71250 1607 ft 117 kts 152°
2026-05-07 22:40 36.09747 -75.70939 1572 ft 117 kts 147°
2026-05-07 22:41 36.09006 -75.70535 1606 ft 115 kts 147°
2026-05-07 22:41 36.08331 -75.70017 1519 ft 113 kts 129°
2026-05-07 22:41 36.07722 -75.69373 1359 ft 117 kts 136°
2026-05-07 22:41 36.07014 -75.68878 1203 ft 116 kts 145°
2026-05-07 22:42 36.06306 -75.68420 1126 ft 112 kts 140°
2026-05-07 22:42 36.05727 -75.67823 1088 ft 108 kts 129°
2026-05-07 22:42 36.05136 -75.67236 1046 ft 108 kts 129°
2026-05-07 22:42 36.04527 -75.66666 1005 ft 111 kts 136°
2026-05-07 22:43 36.03869 -75.66158 961 ft 111 kts 143°
2026-05-07 22:43 36.03131 -75.65847 853 ft 116 kts 166°
2026-05-07 22:43 36.02312 -75.65899 947 ft 120 kts 188°
2026-05-07 22:43 36.01488 -75.66194 926 ft 120 kts 193°
2026-05-07 22:44 36.00806 -75.66460 906 ft 85 kts 198°
2026-05-07 22:44 36.00300 -75.66766 734 ft 79 kts 231°
2026-05-07 22:44 36.00160 -75.67325 566 ft 66 kts 297°
2026-05-07 22:44 36.00387 -75.67591 442 ft 44 kts 15°
2026-05-07 22:45 36.00697 -75.67499 291 ft 46 kts 16°
2026-05-07 22:45 36.01002 -75.67408 180 ft 46 kts 23°
2026-05-07 22:45 36.01322 -75.67298 43 ft 49 kts 19°
2026-05-07 22:45 36.01633 -75.67202 13 ft 40 kts 19°
2026-05-07 22:46 36.01892 -75.67116 46 ft 42 kts 18°
2026-05-07 22:46 36.02240 -75.66974 172 ft 66 kts 20°
2026-05-07 22:46 36.02698 -75.66828 518 ft 60 kts 15°
2026-05-07 22:46 36.03065 -75.66703 831 ft 60 kts 36°
2026-05-07 22:47 36.03005 -75.66161 1107 ft 80 kts 105°
2026-05-07 22:47 36.02725 -75.65593 1066 ft 79 kts 123°
2026-05-07 22:47 36.02162 -75.65481 964 ft 94 kts 199°
2026-05-07 22:47 36.01602 -75.65877 919 ft 91 kts 212°
2026-05-07 22:48 36.01070 -75.66256 896 ft 87 kts 203°
2026-05-07 22:48 36.00518 -75.66576 831 ft 80 kts 214°
2026-05-07 22:48 36.00380 -75.67136 703 ft 68 kts 299°
2026-05-07 22:48 36.00634 -75.67446 438 ft 51 kts
2026-05-07 22:49 36.00966 -75.67414 179 ft 46 kts 19°
2026-05-07 22:49 36.01256 -75.67323 66 ft 41 kts 20°
2026-05-07 22:49 36.01507 -75.67238 9 ft 27 kts 68°
2026-05-07 22:49 36.01637 -75.67187 9 ft 25 kts
2026-05-07 22:50 36.01834 -75.67124 8 ft 29 kts 22°
2026-05-07 22:50 36.01988 -75.67082 6 ft 19 kts 15°
2026-05-07 22:50 36.02085 -75.67027 6 ft 10 kts 80°
2026-05-07 22:50 36.02139 -75.67016 5 ft 11 kts 256°
2026-05-07 22:51 36.02018 -75.67069 6 ft 27 kts 193°
2026-05-07 22:51 36.01839 -75.67129 7 ft 15 kts 211°
2026-05-07 22:51 36.01729 -75.67166 8 ft 18 kts 193°
2026-05-07 22:51 36.01580 -75.67210 9 ft 24 kts 190°
2026-05-07 22:52 36.01468 -75.67214 9 ft 10 kts 111°
2026-05-07 22:52 36.01403 -75.67176 10 ft 9 kts 192°
2026-05-07 22:52 36.01385 -75.67179 10 ft 3 kts 34°
2026-05-07 22:52 36.01386 -75.67178 10 ft 0 kts 13°
2026-05-07 22:53 36.01387 -75.67178 10 ft 0 kts 12°